Date,TemperatureHighF,TemperatureAvgF,TemperatureLowF,DewpointHighF,DewpointAvgF,DewpointLowF,HumidityHigh,HumidityAvg,HumidityLow,PressureMaxIn,PressureMinIn,WindSpeedMaxMPH,WindSpeedAvgMPH,GustSpeedMaxMPH,PrecipitationSumIn
2013-1-1,34,31,23,30,26,15,89,83,70,30.17,30.06,3,1,10,0.01
2013-1-2,31,24,19,17,14,12,75,66,48,30.32,30.14,3,1,10,0.00
2013-1-3,36,25,12,21,16,9,88,70,51,30.31,30.20,5,1,14,0.00
2013-1-4,35,31,28,25,21,18,80,67,56,30.34,30.23,7,3,14,0.00
2013-1-5,40,32,27,26,22,18,75,65,54,30.47,30.23,3,1,11,0.00
2013-1-6,40,37,34,31,28,25,82,70,63,30.29,30.08,3,1,11,0.04
2013-1-7,37,33,28,28,26,22,79,74,62,30.54,30.29,3,1,11,0.00
2013-1-8,49,34,21,31,25,17,88,72,48,30.44,30.34,2,0,8,0.00
2013-1-9,50,39,26,40,32,22,89,77,64,30.57,30.31,4,1,15,0.02
2013-1-10,42,38,30,34,29,26,85,69,58,30.69,30.38,2,1,7,0.00
2013-1-11,55,48,39,51,40,27,90,76,57,30.38,30.06,4,1,11,0.20
2013-1-12,65,56,47,57,51,43,93,85,72,30.18,30.06,3,0,8,0.01
2013-1-13,71,63,55,57,54,50,91,75,58,30.06,29.95,6,2,17,0.08
2013-1-14,59,40,32,57,32,23,91,71,53,30.46,29.98,6,2,18,0.02
2013-1-15,34,31,26,27,23,21,83,71,62,30.47,30.17,3,2,8,0.00
2013-1-16,35,33,31,32,29,27,89,87,83,30.17,29.99,3,1,7,0.06
2013-1-17,37,35,32,29,28,27,85,77,70,30.27,30.11,3,1,13,0.02
2013-1-18,35,28,20,27,14,7,81,58,39,30.57,30.24,5,2,18,0.00
2013-1-19,58,46,33,23,17,13,51,33,19,30.32,29.93,5,2,11,0.01
2013-1-20,47,37,25,30,18,11,60,47,34,30.23,29.88,8,3,17,0.00
2013-1-21,28,22,13,20,12,2,79,64,55,30.19,30.00,5,3,18,0.00
2013-1-22,17,11,8,7,0,-4,75,59,41,30.34,30.13,5,3,17,0.00
2013-1-23,18,13,7,10,1,-2,74,59,42,30.38,30.14,4,2,11,0.00
2013-1-24,26,17,13,13,6,-4,84,62,27,30.61,30.12,6,2,17,0.00
2013-1-25,21,16,13,15,9,2,84,73,57,30.59,30.10,3,1,11,0.00
2013-1-26,33,24,19,24,18,12,84,76,64,30.52,30.16,3,1,11,0.00
2013-1-27,35,25,12,20,15,9,86,66,48,30.62,30.40,3,1,8,0.02
2013-1-28,50,41,31,47,37,20,90,85,63,30.40,30.10,4,1,14,0.32
2013-1-29,66,57,50,56,50,45,92,78,65,30.15,29.90,4,1,12,0.01
2013-1-30,68,60,51,56,52,44,93,78,61,29.91,29.35,6,3,17,0.83
2013-1-31,51,30,24,46,22,10,90,70,47,29.94,29.34,12,4,26,0.02
2013-2-1,24,18,12,19,7,2,81,63,52,30.42,29.91,7,3,21,0.00
2013-2-2,26,19,11,21,13,3,86,76,67,30.40,30.05,5,1,13,0.00
2013-2-3,30,24,19,22,18,12,86,78,62,30.12,29.92,4,2,17,0.00
2013-2-4,31,24,19,24,17,10,87,76,56,30.16,29.95,4,1,14,0.00
2013-2-5,33,30,27,29,26,24,89,86,75,30.03,29.91,3,1,8,0.00
2013-2-6,40,30,22,26,22,15,88,71,43,30.42,30.03,4,1,13,0.06
2013-2-7,48,32,19,29,23,14,84,68,46,30.39,30.06,4,1,11,0.04
2013-2-8,40,34,27,36,28,21,88,79,73,30.24,29.90,6,2,19,0.13
2013-2-9,42,28,22,21,17,14,78,63,35,30.47,30.24,7,2,17,0.00
2013-2-10,55,36,18,27,19,14,85,53,23,30.44,30.06,4,1,11,0.00
2013-2-11,65,49,39,48,34,24,89,62,25,30.06,29.75,8,3,24,0.07
2013-2-12,48,38,30,27,25,16,75,60,42,30.17,30.01,5,2,16,0.00
2013-2-13,41,32,24,30,26,21,88,79,60,30.03,29.78,3,0,10,0.01
2013-2-14,44,36,30,35,30,25,87,77,62,30.05,29.95,5,1,13,0.17
2013-2-15,44,37,28,35,28,22,87,69,46,30.15,30.00,4,1,13,0.00
2013-2-16,38,28,23,24,18,13,82,67,39,30.15,30.00,3,1,11,0.04
2013-2-17,27,21,17,19,12,5,87,69,50,30.34,30.00,5,2,18,0.00
2013-2-18,46,30,10,30,15,6,84,56,35,30.38,29.97,5,1,14,0.00
2013-2-19,46,38,25,39,29,14,85,71,47,30.03,29.77,7,4,22,0.14
2013-2-20,26,22,19,16,12,7,79,67,49,30.29,30.03,6,3,21,0.00
2013-2-21,32,23,20,18,14,12,82,69,49,30.44,30.26,4,2,14,0.00
2013-2-22,37,31,22,33,25,14,89,77,54,30.37,30.08,6,2,14,0.02
2013-2-23,47,38,31,37,32,28,87,80,63,30.10,29.95,2,1,8,0.00
2013-2-24,34,31,28,28,24,20,87,73,59,30.23,29.96,4,1,13,0.00
2013-2-25,48,36,24,29,23,20,89,61,37,30.32,30.15,4,1,9,0.00
2013-2-26,42,36,30,36,28,21,92,72,47,30.17,29.68,10,2,21,0.81
2013-2-27,47,40,35,40,36,31,93,84,69,29.78,29.66,4,1,14,0.26
2013-2-28,36,35,33,33,31,28,90,85,78,29.91,29.72,4,2,13,0.08
2013-3-1,33,31,27,31,25,20,90,78,71,30.07,29.90,4,1,11,0.01
2013-3-2,32,28,26,24,21,18,87,76,63,30.05,29.99,4,2,13,0.01
2013-3-3,31,27,24,23,20,17,87,75,63,30.09,30.00,4,2,14,0.00
2013-3-4,48,30,23,21,18,-6,81,62,37,30.21,30.08,4,2,14,0.11
2013-3-5,50,35,21,26,17,8,82,52,20,30.19,29.78,5,2,21,0.00
2013-3-6,46,37,32,36,29,26,92,73,56,30.20,29.78,5,1,21,0.43
2013-3-7,46,37,34,34,29,26,85,74,52,30.38,30.19,6,2,14,0.00
2013-3-8,34,32,31,27,26,24,81,77,74,30.46,30.37,4,2,13,0.00
2013-3-9,60,42,24,30,26,22,90,58,24,30.50,30.27,4,1,6,0.01
2013-3-10,74,56,39,36,30,25,69,41,17,30.27,30.09,6,2,11,0.00
2013-3-11,66,58,49,49,34,27,88,43,25,30.10,29.81,7,2,15,0.20
2013-3-12,48,41,38,45,34,28,88,75,63,30.09,29.88,4,2,8,0.05
2013-3-13,38,34,29,31,26,17,89,73,56,30.22,30.01,7,3,11,0.05
2013-3-14,42,33,26,20,18,16,71,56,37,30.29,30.20,7,3,11,0.00
2013-3-15,52,46,30,37,30,20,84,55,42,30.22,29.91,5,2,13,0.00
2013-3-16,41,37,34,38,34,30,92,90,84,30.06,29.74,4,2,13,0.06
2013-3-17,40,34,29,30,24,21,87,68,50,30.29,30.06,4,2,11,0.01
2013-3-18,42,35,31,36,30,22,91,80,66,30.26,29.79,5,2,18,0.41
2013-3-19,48,40,32,41,26,16,93,61,29,30.06,29.79,9,4,27,0.04
2013-3-20,43,33,29,19,17,13,61,53,35,30.06,29.97,6,2,17,0.00
2013-3-21,32,27,20,21,14,5,82,59,38,29.99,29.94,5,2,11,0.00
2013-3-22,37,30,27,21,19,17,74,63,46,30.11,29.98,5,2,14,0.00
2013-3-23,51,36,23,27,21,19,88,58,31,30.13,30.06,5,1,8,0.00
2013-3-24,47,36,28,30,23,20,83,62,37,30.09,29.64,6,2,13,0.00
2013-3-25,40,36,32,35,33,30,93,89,81,29.84,29.56,4,1,9,0.09
2013-3-26,47,38,33,33,31,28,93,79,57,30.17,29.84,4,2,17,0.05
2013-3-27,126,38,33,100,30,-7,93,75,42,30.25,30.15,108,3,108,0.12
2013-3-28,46,40,36,32,30,28,83,68,51,30.36,30.21,5,2,15,0.00
2013-3-29,60,46,39,33,26,16,71,50,19,30.36,30.23,4,1,11,0.00
2013-3-30,62,46,29,32,21,13,81,42,16,30.35,30.13,3,1,10,0.00
2013-3-31,52,48,41,47,36,20,88,67,33,30.13,29.83,4,1,9,0.08
2013-4-1,48,43,34,44,27,9,87,58,23,30.12,29.81,6,3,19,0.04
2013-4-2,45,35,27,22,15,10,70,44,25,30.28,30.11,5,2,21,0.00
2013-4-3,44,35,28,23,13,6,64,41,23,30.50,30.27,6,2,22,0.00
2013-4-4,59,41,21,21,12,-1,79,39,10,30.49,30.07,3,1,11,0.00
2013-4-5,59,46,34,29,23,17,68,42,20,30.29,30.03,7,2,20,0.00
2013-4-6,64,46,27,26,13,-2,74,35,10,30.40,30.13,4,1,12,0.00
2013-4-7,75,63,53,46,35,15,57,35,21,30.13,29.97,5,3,18,0.00
2013-4-8,79,65,50,49,44,41,71,49,29,30.16,29.99,5,2,17,0.00
2013-4-9,85,73,59,55,52,46,76,49,32,30.22,30.01,4,2,13,0.00
2013-4-10,84,72,61,64,58,51,93,63,43,30.10,29.90,6,1,18,0.50
2013-4-11,78,67,57,60,57,51,93,74,50,30.01,29.72,6,2,14,0.00
2013-4-12,66,58,47,60,49,33,94,72,48,29.97,29.62,9,3,26,0.48
2013-4-13,58,48,42,36,33,30,70,57,38,30.13,29.96,6,2,16,0.00
2013-4-14,68,52,37,35,30,-2,71,45,25,30.26,30.13,4,1,11,0.00
2013-4-15,71,63,57,50,44,34,64,50,39,30.21,30.09,6,2,18,0.00
2013-4-16,82,66,57,61,54,48,94,67,44,30.31,30.13,9,2,22,0.50
2013-4-17,76,62,52,57,52,46,95,72,45,30.37,30.20,4,2,11,0.01
2013-4-18,89,75,62,60,57,54,81,56,32,30.22,29.89,7,3,21,0.00
2013-4-19,74,62,46,62,48,29,83,62,50,29.97,29.62,7,4,24,0.20
2013-4-20,50,44,37,33,26,21,78,51,34,30.50,29.97,6,3,21,0.00
2013-4-21,59,44,29,27,20,11,82,43,16,30.69,30.50,5,2,11,0.00
2013-4-22,68,55,44,29,23,14,48,31,15,30.56,30.36,5,2,14,0.00
2013-4-23,77,60,42,38,32,27,68,39,17,30.40,30.08,3,1,12,0.00
2013-4-24,73,58,42,57,45,34,90,63,41,30.28,29.87,8,3,27,0.32
2013-4-25,63,49,38,41,32,24,86,57,23,30.46,30.27,4,2,15,0.05
2013-4-26,67,52,38,43,31,18,92,52,18,30.57,30.44,4,1,10,0.00
2013-4-27,79,61,38,38,32,22,86,41,14,30.50,30.26,5,2,16,0.00
2013-4-28,64,59,56,54,47,38,88,67,39,30.27,30.05,6,2,15,0.20
2013-4-29,68,60,55,58,53,48,89,79,67,30.14,30.05,4,1,11,0.08
2013-4-30,77,65,50,56,52,32,91,66,42,30.31,30.14,8,2,17,0.00
2013-5-1,82,68,56,51,45,31,78,49,22,30.42,30.30,6,2,14,0.00
2013-5-2,83,68,52,40,31,18,63,30,10,30.48,30.30,5,2,14,0.00
2013-5-3,79,66,50,44,38,24,73,38,15,30.38,30.25,12,3,22,0.00
2013-5-4,76,64,50,42,39,28,60,41,19,30.33,30.18,5,3,17,0.00
2013-5-5,78,65,53,41,29,11,63,33,10,30.27,30.11,6,3,18,0.00
2013-5-6,75,63,50,54,45,35,72,53,40,30.21,30.10,6,2,18,0.00
2013-5-7,74,64,58,58,54,52,85,72,46,30.15,30.07,5,2,11,0.06
2013-5-8,79,66,55,57,51,42,94,62,29,30.11,29.99,6,2,13,0.15
2013-5-9,82,68,58,57,52,38,88,59,25,30.11,30.02,3,1,11,0.00
2013-5-10,80,66,62,62,58,47,94,75,49,30.12,29.92,5,1,19,0.52
2013-5-11,63,59,54,61,54,48,95,84,69,29.95,29.88,3,1,11,0.12
2013-5-12,57,50,41,49,31,23,84,50,29,30.16,29.94,6,3,21,0.00
2013-5-13,59,47,37,32,26,18,76,45,21,30.29,30.15,6,2,20,0.00
2013-5-14,66,51,34,40,34,26,88,55,32,30.29,30.01,5,1,14,0.00
2013-5-15,90,72,53,61,53,40,75,54,34,30.01,29.82,6,2,19,0.00
2013-5-16,86,74,64,63,54,41,93,55,21,30.10,29.89,4,1,13,0.25
2013-5-17,87,72,57,60,54,46,88,59,29,30.23,30.09,4,1,11,0.00
2013-5-18,87,72,59,62,54,45,74,54,33,30.26,30.13,4,2,14,0.00
2013-5-19,82,72,61,63,61,57,88,70,50,30.23,30.09,4,2,12,0.00
2013-5-20,92,78,63,68,64,60,90,66,43,30.17,30.01,4,1,11,0.00
2013-5-21,93,81,69,69,66,61,90,62,39,30.09,29.93,5,2,13,0.00
2013-5-22,93,77,69,69,62,59,79,62,37,30.02,29.89,6,2,16,0.00
2013-5-23,82,67,52,65,62,49,94,83,47,30.03,29.88,6,2,17,1.06
2013-5-24,52,47,42,49,38,31,91,73,51,30.39,30.02,6,3,17,0.01
2013-5-25,66,52,38,39,34,29,86,54,26,30.41,30.31,5,2,17,0.00
2013-5-26,57,46,42,40,34,31,73,62,50,30.40,30.34,2,1,7,0.00
2013-5-27,67,57,43,48,42,36,89,58,37,30.39,30.22,4,1,8,0.00
2013-5-28,86,75,55,67,62,47,94,65,48,30.22,30.08,4,1,14,0.28
2013-5-29,93,82,71,62,61,59,68,50,32,30.20,30.12,10,2,21,0.00
2013-5-30,94,82,66,66,62,56,83,54,30,30.31,30.19,3,1,11,0.00
2013-5-31,93,82,69,66,63,60,87,57,34,30.25,30.09,4,2,14,0.00
2013-6-1,92,81,69,69,65,62,89,59,41,30.14,29.93,4,2,17,0.07
2013-6-2,86,78,72,68,62,56,86,60,39,29.99,29.91,5,2,15,0.01
2013-6-3,75,66,55,59,53,40,83,63,40,30.19,29.99,4,2,12,0.00
2013-6-4,79,63,46,48,44,40,87,53,28,30.28,30.19,4,1,12,0.00
2013-6-5,88,71,53,61,53,46,80,54,37,30.26,30.03,6,1,16,0.00
2013-6-6,73,68,64,66,64,58,96,87,60,30.06,29.90,5,1,12,1.12
2013-6-7,71,64,60,64,61,54,100,89,76,29.98,29.87,4,2,13,0.01
2013-6-8,79,66,58,56,55,53,85,69,43,30.23,29.98,3,1,10,0.00
2013-6-9,86,73,59,65,60,56,93,65,40,30.29,30.12,5,2,14,0.00
2013-6-10,79,73,69,72,67,62,95,82,67,30.14,29.89,3,1,12,0.43
2013-6-11,84,73,67,68,64,60,89,74,48,30.01,29.91,4,2,14,0.02
2013-6-12,88,78,67,71,66,62,89,69,44,30.04,29.87,4,1,14,0.00
2013-6-13,78,70,62,73,63,55,96,81,65,29.92,29.67,6,3,20,0.56
2013-6-14,81,67,58,59,56,54,88,71,39,30.18,29.92,4,1,13,0.00
2013-6-15,85,71,55,57,51,40,94,56,23,30.26,30.12,4,1,11,0.00
2013-6-16,82,72,64,69,63,54,93,76,52,30.14,30.01,3,1,12,0.47
2013-6-17,90,78,68,68,62,53,92,62,30,30.10,30.00,3,1,17,0.00
2013-6-18,84,72,65,68,62,59,86,71,50,30.08,29.96,3,1,10,0.07
2013-6-19,83,70,57,59,50,41,85,55,24,30.27,30.08,4,2,11,0.00
2013-6-20,89,72,53,58,51,44,93,54,24,30.35,30.27,3,1,8,0.00
2013-6-21,94,77,59,62,56,52,91,54,26,30.38,30.26,3,1,8,0.02
2013-6-22,94,80,64,68,64,59,90,61,40,30.32,30.17,4,1,12,0.00
2013-6-23,96,85,72,70,67,62,85,57,35,30.27,30.16,4,1,11,0.00
2013-6-24,95,84,70,69,66,61,87,56,34,30.27,30.11,4,1,12,0.00
2013-6-25,96,81,67,69,67,62,96,65,40,30.18,29.99,8,2,22,0.54
2013-6-26,89,77,67,71,68,65,100,77,48,30.12,29.93,5,1,15,1.77
2013-6-27,82,74,70,72,69,65,95,85,68,29.94,29.75,4,1,11,0.58
2013-6-28,85,73,66,72,66,63,94,81,58,29.79,29.61,5,1,18,0.28
2013-6-29,87,74,64,65,63,60,92,70,43,29.83,29.68,4,1,11,0.00
2013-6-30,89,74,64,71,66,62,96,78,44,29.98,29.81,4,1,15,0.70
2013-7-1,82,73,68,70,67,65,97,82,61,30.07,29.95,4,1,13,0.08
2013-7-2,91,79,68,71,69,66,97,73,50,30.18,30.06,3,1,11,0.11
2013-7-3,92,80,74,70,68,66,78,69,46,30.29,30.18,4,1,12,0.00
2013-7-4,93,81,73,72,69,66,93,69,43,30.34,30.22,6,1,10,0.05
2013-7-5,91,81,73,70,69,67,91,68,47,30.29,30.20,6,2,18,0.01
2013-7-6,95,83,72,72,70,68,93,67,43,30.30,30.14,4,1,7,0.09
2013-7-7,86,78,73,71,69,68,88,76,57,30.22,30.12,4,1,8,0.07
2013-7-8,89,82,68,69,66,63,90,60,47,30.25,30.17,3,2,9,0.00
2013-7-9,91,80,69,76,72,60,100,78,58,30.24,30.08,3,2,11,0.66
2013-7-10,90,74,63,78,71,63,100,90,65,30.14,29.93,9,1,25,1.31
2013-7-11,83,73,66,67,62,58,97,71,46,30.13,30.02,4,2,11,0.00
2013-7-12,81,70,60,67,62,57,92,76,56,30.24,30.12,3,1,8,0.01
2013-7-13,88,76,64,70,66,61,91,70,50,30.35,30.22,4,2,11,0.00
2013-7-14,97,84,72,71,68,65,89,62,40,30.41,30.33,4,1,12,0.00
2013-7-15,100,85,72,72,70,65,93,63,36,30.47,30.35,3,1,10,0.00
2013-7-16,96,81,73,76,73,70,97,79,48,30.44,30.35,8,1,21,0.32
2013-7-17,98,83,74,78,75,72,100,80,47,30.43,30.28,5,1,13,0.01
2013-7-18,100,87,76,78,75,71,94,69,41,30.31,30.14,3,1,11,0.00
2013-7-19,98,86,76,76,73,69,85,68,41,30.16,29.99,6,2,17,0.01
2013-7-20,89,79,72,74,70,68,92,75,56,30.05,29.96,5,2,16,0.09
2013-7-21,90,77,70,72,70,66,97,79,50,30.09,30.02,4,1,11,0.46
2013-7-22,84,73,68,75,71,64,100,92,73,30.08,29.90,4,1,11,0.40
2013-7-23,89,75,68,71,68,62,100,81,45,29.92,29.82,5,1,16,0.26
2013-7-24,80,69,62,67,58,53,94,69,43,30.12,29.89,5,2,14,0.01
2013-7-25,82,68,54,57,53,49,93,62,34,30.21,30.12,4,2,13,0.00
2013-7-26,87,73,57,64,57,53,97,63,35,30.22,30.11,3,1,11,0.00
2013-7-27,77,70,64,70,65,60,100,85,68,30.12,29.96,4,1,11,0.78
2013-7-28,82,72,64,69,61,54,100,72,41,30.16,29.97,4,2,14,0.12
2013-7-29,79,67,59,56,54,51,85,65,39,30.23,30.16,4,1,12,0.00
2013-7-30,85,76,57,62,58,52,97,56,36,30.36,30.26,3,1,8,0.00
2013-7-31,67,64,61,64,61,60,97,92,79,30.28,30.26,1,0,4,0.00
2013-8-1,87,75,67,69,65,60,100,73,43,30.08,29.97,4,1,7,0.11
2013-8-2,82,73,64,64,59,50,93,65,33,30.11,30.03,6,2,11,0.00
2013-8-3,83,72,66,70,64,57,100,77,50,30.11,30.04,4,1,11,0.22
2013-8-4,80,68,58,60,57,53,97,70,43,30.21,30.11,7,2,11,0.02
2013-8-5,82,72,56,59,54,48,97,55,33,30.25,30.14,3,1,8,0.00
2013-8-6,88,73,59,63,57,52,95,62,32,30.17,30.08,3,1,10,0.00
2013-8-7,88,73,65,71,65,60,93,77,55,30.11,30.06,3,1,8,0.00
2013-8-8,91,82,70,75,72,67,94,73,58,30.10,30.00,4,2,12,0.00
2013-8-9,85,77,70,76,71,63,100,84,64,30.14,30.01,4,1,11,0.27
2013-8-10,87,76,65,66,64,61,96,70,43,30.22,30.14,3,1,13,0.00
2013-8-11,88,75,65,71,63,57,85,67,43,30.25,30.13,4,1,11,0.00
2013-8-12,90,78,66,70,65,61,97,68,39,30.19,30.00,3,1,10,0.00
2013-8-13,84,74,60,70,63,50,90,70,46,30.11,29.92,5,2,17,0.00
2013-8-14,75,63,56,56,52,49,84,67,44,30.27,30.10,4,1,12,0.00
2013-8-15,80,66,51,58,51,46,97,64,32,30.32,30.20,4,1,9,0.00
2013-8-16,85,70,55,58,55,52,95,64,34,30.30,30.23,3,1,8,0.00
2013-8-17,84,71,58,61,56,49,96,64,31,30.38,30.29,4,1,14,0.00
2013-8-18,78,70,64,67,62,58,97,77,60,30.34,30.25,3,1,8,0.02
2013-8-19,87,73,67,71,66,63,100,83,49,30.28,30.16,2,1,7,0.20
2013-8-20,91,76,61,67,62,56,100,68,32,30.32,30.23,2,1,8,0.00
2013-8-21,91,78,62,69,64,58,100,67,35,30.33,30.17,3,1,8,0.00
2013-8-22,89,77,69,74,69,65,96,78,50,30.23,30.09,5,1,14,0.61
2013-8-23,89,75,68,71,65,56,100,74,36,30.28,30.11,4,1,9,0.01
2013-8-24,87,72,60,63,59,56,88,64,37,30.42,30.27,3,1,12,0.00
2013-8-25,90,75,59,64,60,57,97,65,34,30.48,30.34,3,1,9,0.00
2013-8-26,91,78,66,69,63,60,83,61,40,30.38,30.14,3,1,11,0.00
2013-8-27,88,78,74,75,71,68,94,78,59,30.15,30.05,4,1,14,0.22
2013-8-28,81,75,72,77,74,72,100,96,82,30.08,29.95,4,1,11,0.79
2013-8-29,90,81,70,73,69,67,99,68,49,30.16,30.04,3,1,8,0.00
2013-8-30,94,80,67,73,70,66,100,74,45,30.14,29.95,3,1,11,0.00
2013-8-31,93,81,74,73,71,68,90,72,44,29.98,29.88,3,1,13,0.00
2013-9-1,87,77,72,74,72,70,100,86,64,29.97,29.89,2,1,8,0.12
2013-9-2,91,78,69,73,71,67,96,80,49,29.99,29.85,4,1,12,0.19
2013-9-3,76,68,63,67,60,54,100,78,49,30.17,29.96,3,1,12,0.00
2013-9-4,85,70,57,60,57,56,97,68,40,30.25,30.15,3,1,11,0.00
2013-9-5,80,69,58,63,55,47,86,63,37,30.34,30.18,4,2,14,0.00
2013-9-6,80,64,48,52,47,39,100,60,25,30.40,30.25,4,1,10,0.00
2013-9-7,86,69,50,58,52,45,100,61,26,30.26,30.06,3,1,8,0.00
2013-9-8,84,74,64,69,63,58,83,68,55,30.19,30.04,5,1,14,0.00
2013-9-9,88,68,59,70,61,56,91,79,55,30.23,30.16,2,1,9,0.00
2013-9-10,97,87,70,76,75,70,99,68,51,30.26,30.17,3,1,13,0.00
2013-9-11,94,81,75,77,73,70,92,79,53,30.28,30.14,6,1,15,0.08
2013-9-12,82,75,69,73,71,67,97,89,73,30.14,29.94,5,1,26,0.34
2013-9-13,71,64,58,63,57,52,100,81,60,30.04,29.94,6,2,19,0.26
2013-9-14,72,59,52,50,47,43,87,66,38,30.29,30.15,4,1,8,0.00
2013-9-15,76,62,48,57,52,47,100,71,44,30.31,30.18,4,1,8,0.00
2013-9-16,76,67,54,59,54,50,100,66,47,30.43,30.20,4,2,11,0.19
2013-9-17,76,60,47,53,47,43,97,66,33,30.52,30.36,4,2,14,0.00
2013-9-18,80,64,47,55,50,44,94,63,37,30.39,30.21,3,1,9,0.00
2013-9-19,82,68,63,65,61,55,94,77,51,30.26,30.19,2,1,8,0.00
2013-9-20,86,73,62,70,66,60,96,81,60,30.17,29.96,4,1,9,0.00
2013-9-21,72,66,59,69,64,59,100,94,82,29.96,29.82,4,2,8,0.61
2013-9-22,66,59,54,58,52,47,99,80,52,30.14,29.93,6,2,11,0.01
2013-9-23,66,56,47,50,45,42,92,68,49,30.27,30.14,4,1,8,0.01
2013-9-24,77,57,43,50,45,41,100,72,29,30.25,30.08,4,1,11,0.00
2013-9-25,81,62,48,56,51,46,100,74,31,30.11,29.99,4,1,9,0.00
2013-9-26,82,65,50,56,52,46,100,69,30,30.20,30.06,3,1,8,0.00
2013-9-27,80,62,50,57,53,50,100,75,39,30.32,30.20,4,1,8,0.00
2013-9-28,80,64,52,59,54,50,100,72,39,30.38,30.26,4,1,12,0.00
2013-9-29,81,66,53,60,54,49,89,67,44,30.28,30.11,3,1,10,0.00
2013-9-30,75,65,56,63,58,54,94,79,63,30.18,30.10,3,0,10,0.00
2013-10-1,82,68,62,64,61,60,92,79,50,30.21,30.14,3,1,13,0.00
2013-10-2,86,73,63,67,62,59,90,72,46,30.22,30.14,3,1,8,0.00
2013-10-3,83,73,61,70,66,61,100,80,64,30.22,30.13,3,1,8,0.11
2013-10-4,87,73,66,71,68,65,100,85,50,30.23,30.14,4,1,9,0.09
2013-10-5,84,72,67,72,69,67,100,90,64,30.21,30.11,3,0,8,0.20
2013-10-6,90,77,67,69,66,61,99,72,41,30.10,29.88,4,1,10,0.00
2013-10-7,74,62,54,62,54,45,100,75,51,30.03,29.83,4,2,11,0.32
2013-10-10,75,61,48,50,46,41,87,60,31,30.36,30.22,4,1,7,0.00
2013-10-11,65,59,53,58,54,48,97,82,73,30.22,30.17,4,1,7,0.04
2013-10-12,80,66,56,64,58,52,90,75,57,30.28,30.18,3,1,7,0.01
2013-10-13,76,66,61,63,59,56,91,79,63,30.38,30.27,5,1,8,0.01
2013-10-14,64,62,59,60,59,58,100,91,83,30.42,30.34,4,1,6,0.00
2013-10-15,74,65,54,62,58,54,100,80,63,30.33,30.10,4,1,7,0.00
2013-10-16,63,60,58,58,57,55,96,88,77,30.11,30.06,4,1,8,0.22
2013-10-17,63,57,51,61,53,49,100,88,71,30.03,29.81,8,1,14,0.30
2013-10-18,69,56,47,50,45,42,93,67,39,30.14,30.01,4,2,9,0.00
2013-10-19,57,50,44,49,44,40,92,82,69,30.09,29.87,7,1,14,0.05
2013-10-20,63,51,41,42,40,38,94,68,41,30.16,30.05,5,1,12,0.00
2013-10-21,73,63,43,41,37,33,83,40,24,30.18,29.97,4,2,14,0.00
2013-10-22,61,51,42,49,36,26,94,60,30,30.09,29.95,4,1,15,0.18
2013-10-23,46,42,39,41,37,32,91,82,62,30.04,29.87,4,1,16,0.15
2013-10-24,50,41,37,36,33,28,92,74,45,30.25,30.03,5,2,14,0.00
2013-10-25,46,37,35,37,33,31,92,86,68,30.43,30.25,2,1,8,0.00
2013-10-26,53,45,34,34,29,25,81,57,36,30.34,30.00,6,2,14,0.00
2013-10-27,58,46,37,39,34,31,87,65,36,30.22,30.09,4,1,11,0.00
2013-10-28,66,54,32,45,36,31,100,55,29,30.40,30.21,2,0,6,0.00
2013-10-29,54,42,37,43,38,36,97,85,64,30.49,30.40,3,0,6,0.00
2013-10-30,71,62,45,56,50,41,88,67,41,30.35,30.22,3,1,8,0.00
2013-10-31,70,64,59,60,59,56,97,84,63,30.22,29.60,6,2,19,0.18
2013-11-1,69,62,58,60,49,43,90,64,43,29.83,29.48,6,2,24,0.12
2013-11-2,58,52,46,46,44,42,93,75,59,30.07,29.78,4,2,12,0.06
2013-11-3,55,44,34,43,34,25,93,70,39,30.56,30.07,5,2,11,0.00
2013-11-4,35,32,30,26,25,23,80,76,63,30.65,30.56,2,1,8,0.00
2013-11-5,61,50,39,34,31,25,69,50,35,30.60,30.44,4,1,8,0.00
2013-11-6,75,65,38,58,51,30,96,62,43,30.43,30.04,4,1,14,0.09
2013-11-7,59,48,41,59,41,26,100,79,52,30.24,29.99,6,2,18,0.41
2013-11-8,49,40,32,33,29,23,84,64,41,30.39,30.19,4,2,19,0.00
2013-11-9,61,46,30,32,27,19,93,53,21,30.39,30.05,4,2,15,0.00
2013-11-10,55,47,39,38,33,28,72,59,40,30.38,30.07,6,3,23,0.00
2013-11-11,51,43,34,38,31,27,93,64,40,30.38,30.14,7,1,21,0.01
2013-11-12,40,33,28,34,26,18,100,79,45,30.56,30.21,7,2,18,0.08
2013-11-13,43,33,26,27,24,20,95,70,43,30.61,30.46,4,2,17,0.02
2013-11-14,56,40,28,25,22,17,77,50,24,30.46,30.27,3,2,14,0.00
2013-11-15,61,49,38,37,25,15,55,40,18,30.32,30.23,3,1,13,0.00
2013-11-16,63,54,41,50,44,36,91,70,53,30.35,30.14,3,0,11,0.00
2013-11-17,62,58,54,60,55,48,100,89,71,30.14,29.66,6,2,26,0.60
2013-11-18,61,51,40,50,35,27,76,56,37,30.17,29.73,6,4,26,0.00
2013-11-19,40,37,29,28,26,23,80,63,55,30.50,30.17,5,2,15,0.00
2013-11-20,53,39,26,27,19,8,89,51,18,30.57,30.44,5,1,17,0.00
2013-11-21,58,46,35,39,30,17,66,52,40,30.53,30.32,3,0,10,0.00
2013-11-22,55,50,38,55,47,33,100,90,62,30.36,30.17,5,1,17,0.14
2013-11-23,43,33,21,34,24,10,89,72,46,30.43,30.23,7,3,25,0.01
2013-11-24,28,22,18,16,11,6,81,65,47,30.61,30.42,6,3,18,0.00
2013-11-25,39,29,18,24,11,6,69,49,27,30.58,30.30,4,1,12,0.00
2013-11-26,37,34,33,35,32,24,100,94,61,30.32,30.07,3,0,8,0.00
2013-11-27,34,27,24,34,22,18,100,82,72,30.21,29.82,4,0,8,0.11
2013-11-28,33,27,20,23,18,14,83,70,53,30.50,30.21,3,1,8,0.00
2013-11-29,39,32,26,28,22,20,85,69,52,30.74,30.50,4,1,7,0.01
2013-11-30,44,33,26,27,23,20,83,67,48,30.71,30.31,4,1,12,0.08
2013-12-1,48,40,28,32,30,20,91,69,50,30.32,30.08,3,0,10,0.01
2013-12-2,51,43,37,37,35,32,94,72,58,30.08,29.93,3,0,7,0.00
2013-12-3,59,44,37,47,40,36,100,84,57,30.03,29.96,2,0,32,0.02
2013-12-4,61,49,37,49,44,36,100,82,63,30.10,29.99,2,0,8,0.00
2013-12-5,64,57,40,61,53,38,100,87,71,30.18,29.96,6,2,14,0.61
2013-12-6,40,34,29,38,33,29,100,96,87,30.38,30.14,5,1,15,0.21
2013-12-7,34,28,20,30,22,14,100,79,62,30.67,30.36,0,0,24,0.00
2013-12-8,32,25,19,32,21,14,100,84,74,30.68,30.17,0,0,0,0.01
2013-12-9,40,36,31,40,33,24,100,89,74,30.24,30.05,5,2,14,0.14
2013-12-10,31,28,24,25,20,11,94,72,45,30.34,30.13,5,2,14,0.00
2013-12-11,31,24,21,16,14,13,76,67,52,30.44,30.34,4,2,12,0.00
2013-12-12,24,21,14,16,8,4,82,59,44,30.55,30.34,6,2,14,0.00
2013-12-13,38,29,22,22,14,6,75,55,41,30.34,30.29,4,1,11,0.00
2013-12-14,38,33,29,38,29,22,100,87,72,30.33,29.76,4,1,7,0.38
2013-12-15,39,31,22,39,27,12,99,84,62,30.12,29.73,4,1,9,0.13
2013-12-16,27,25,20,22,18,12,85,73,59,30.26,30.12,2,1,6,0.00
2013-12-17,37,32,26,33,28,22,95,85,68,30.13,30.02,5,1,11,0.07
2013-12-18,32,29,27,27,23,20,92,79,69,30.29,30.12,6,2,13,0.00
2013-12-19,53,41,28,37,29,22,85,64,40,30.20,30.12,4,1,10,0.00
2013-12-20,57,52,36,52,41,30,90,70,47,30.13,30.00,4,2,14,0.04
2013-12-21,62,59,55,62,57,51,100,94,82,30.01,29.76,4,2,13,0.54
2013-12-22,68,61,56,62,57,48,100,85,73,30.07,29.67,9,2,21,0.20
2013-12-23,55,40,32,49,35,21,100,82,64,30.38,30.07,4,2,12,0.07
2013-12-24,32,25,16,26,16,9,91,70,56,30.60,30.31,6,2,17,0.00
2013-12-25,30,22,14,26,14,8,92,71,56,30.59,30.31,3,1,10,0.00
2013-12-26,39,32,27,30,24,17,97,74,52,30.44,30.22,5,2,16,0.04
2013-12-27,45,36,29,30,25,18,72,62,51,30.46,30.35,3,1,11,0.01
2013-12-28,55,45,37,32,28,24,60,52,40,30.35,30.16,3,1,14,0.00
2013-12-29,45,42,40,43,37,26,100,84,49,30.16,29.78,4,1,14,0.54
2013-12-30,42,31,25,40,27,18,93,85,71,30.28,29.94,5,1,18,0.00
2013-12-31,27,26,24,23,19,14,89,75,64,30.39,30.16,6,2,19,0.00
2014-1-1,36,29,25,26,23,20,86,77,67,30.41,30.15,4,1,9,0.00
2014-1-2,31,26,12,29,23,9,100,90,82,30.15,29.79,7,2,16,0.00